Location: Moena
(46.3667°N, 11.6500°E)
Time: 13:38:58
(UTC+00:00)

Cosmos 2333 Rocket - Pass Details

Date: 17 June 2021
Orbit: 841 x 861 km, 70.8° (Epoch: 26 July)

Event Time Altitude Azimuth Distance (km) Brightness Sun altitude
Rises 22:37:52 0° 239° (WSW) 3,426 5.1 -19.7°
Reaches altitude 10° 22:40:38 10° 250° (WSW) 2,491 4.5 -19.8°
Maximum altitude 22:45:37 30° 310° (NW) 1,498 3.9 -19.9°
Drops below altitude 10° 22:50:36 10° 11° (N) 2,493 5.7 -20.0°
Sets 22:53:23 0° 22° (NNE) 3,429 6.5 -20.1°
